This is the latest recevied weather packets stored in our database for station/object VU3ZAG-WX. If no packets are shown the sender has not sent any weather packets the latest 10 day(s).
| Time | Temp. | Humidity | Pressure | Rain* | Wind** | Luminosity | Snow |
|---|---|---|---|---|---|---|---|
| 1777896795 | 36.67° C | 57% | 1006.4 hPa | - | - | - | - |
| 1777896190 | 37.22° C | 56% | 1006.4 hPa | - | - | - | - |
| 1777895585 | 37.22° C | 53% | 1006.3 hPa | - | - | - | - |
| 1777894979 | 37.22° C | 54% | 1006.3 hPa | - | - | - | - |
| 1777894374 | 37.78° C | 54% | 1006.2 hPa | - | - | - | - |
| 1777893767 | 37.78° C | 51% | 1006.2 hPa | - | - | - | - |
| 1777893161 | 37.78° C | 53% | 1006.1 hPa | - | - | - | - |
| 1777892556 | 38.33° C | 52% | 1005.9 hPa | - | - | - | - |
| 1777891949 | 38.33° C | 50% | 1006 hPa | - | - | - | - |
| 1777891342 | 38.33° C | 51% | 1006.1 hPa | - | - | - | - |
| 1777890736 | 38.33° C | 50% | 1006.3 hPa | - | - | - | - |
| 1777890130 | 38.33° C | 51% | 1006.4 hPa | - | - | - | - |
| 1777889524 | 38.89° C | 50% | 1006.5 hPa | - | - | - | - |
| 1777888918 | 38.89° C | 50% | 1006.6 hPa | - | - | - | - |
| 1777888312 | 38.89° C | 51% | 1006.7 hPa | - | - | - | - |
| 1777887707 | 38.89° C | 47% | 1006.8 hPa | - | - | - | - |
| 1777887101 | 38.89° C | 49% | 1007 hPa | - | - | - | - |
| 1777886494 | 38.89° C | 51% | 1007.1 hPa | - | - | - | - |
| 1777885889 | 38.89° C | 49% | 1007.3 hPa | - | - | - | - |
| 1777885284 | 38.89° C | 49% | 1007.4 hPa | - | - | - | - |
| 1777884678 | 38.89° C | 50% | 1007.5 hPa | - | - | - | - |
| 1777884073 | 38.33° C | 51% | 1007.6 hPa | - | - | - | - |
| 1777883468 | 38.33° C | 50% | 1007.7 hPa | - | - | - | - |
| 1777882861 | 38.33° C | 49% | 1007.9 hPa | - | - | - | - |
| 1777882254 | 38.33° C | 49% | 1008 hPa | - | - | - | - |
* Rain since midnight (hover to see other rain measurements)
** Current wind speed in m/s (hover to see current wind gust speed)